Location: Newark
(7.1028°S, 35.3258°W)
Time: 01:26:12
(UTC+00:00)

deb Explorer IX - Pass Details

Date: 28 February 2020
Orbit: 548 x 1100 km, 38.8° (Epoch: 08 April)

Event Time Altitude Azimuth Distance (km) Brightness Sun altitude
Rises 20:58:16 0° 263° (W) 3,061 ? -5.0°
Reaches altitude 10° 21:02:01 10° 234° (SW) 2,277 ? -5.9°
Maximum altitude 21:04:19 13° 209° (SSW) 2,175 ? -6.5°
Drops below altitude 10° 21:06:46 10° 183° (S) 2,447 ? -7.1°
Sets 21:11:09 0° 156° (SSE) 3,538 ? -8.2°
